FENGYUN 1C DEB, 31191

Orbit data source: Space-Track

FENGYUN 1C DEB, 31191 is space debris in SSO originally from a launch on Mon, 10 May 1999 UTC launched from the Taiyaun Space Center, China (TSC). Fengyun 1C debris stems from the Chinese weather satellite Fengyun-1C, which was intentionally destroyed by a Chinese anti-satellite missile in 2007. This event dramatically increased the amount of space debris, with thousands of trackable fragments posing hazards to satellites and human spaceflight. The Fengyun 1C debris cloud has become a focal point in discussions about space sustainability and the need for international regulations to prevent the creation of new debris.

Loading next visibility...
Identifier
31191, 1999-025BJV
Orbit
SSO
Country
Flag of CNCN / PRC
Related business
Manufacturer
Unknown
Mission
Spacecraft
Bus & Motor
Unknown
Mass
Unknown
Launch date (UTC)
1999-05-10 (27 years ago)
Launch vehicle
Unknown
Launch site
Taiyaun Space Center, China (TSC)
Object type
Payload
Rocket body
Debris
Shape & HBR
Unknown shape, 0.1 m
Radar Cross Section
Small (<0.1 m²)

Expand to show TLE details & history
Last TLE update: 21 hours ago

TLE from 21 hours ago
0 FENGYUN 1C DEB
1 31191U 99025BJV 26168.97869051  .00000841  00000-0  26204-3 0  9998
2 31191  98.7736  79.8673 0092468 358.7051   1.3884 14.41253673  6898
Epoch: 2026-06-17T23:29Z
TLE epoch observation values (Epoch: 2026-06-17T23:29:18.860Z)
Latitude
0.00002°
Longitude
-178.6899°
Altitude
691.355 km
Speed
7.545 km/s
True Right ascension
05h 19m 28s
True Declination
0° 00' 00"
Sunlit
Object was in daylight at epoch
Visualization orbit readout
Latitude
Unknown
Longitude
Unknown
Altitude
Unknown
Speed
Unknown
Apparent Right ascension
Unknown
Apparent Declination
Unknown
Sunlit
N/A
Visualization observer readout
Local Sidereal Time
07:08:48
Azimuth
Unknown
Elevation
Unknown
Doppler factor
Unknown
Orbital elements
Apogee altitude
817.419 km
Perigee altitude
685.566 km
Semi-major axis
7,129.629 km
Eccentricity
0.00925
Inclination
98.7736°
RAAN
79.8673°
Arg. of periapsis
358.7051°
True anomaly
1.41437°
Mean anomaly
1.3884°
Eccentric anomaly
1.40136°
Mean motion
3.60531 °/min
Orbital period
99.85 mins
BSTAR
0.00026204
Loading maneuver chart data...
Computing Atmospheric mass density...

Documentation

Showing up to 5 results
|